カタログに戻る

DELTA 1 DEB

運用中LEO
NORAD 7081·DEBRIS·🇺🇸 United States

打ち上げ Nov 6, 1973 から Vandenberg Space Force Base

Loading…

次のパス (今後24時間)

TLE

最新Source: Space-Track

元期: Sep 14, 2026, 07:57 UTC

1 07081U 73086BZ  26257.33135437  .00000130  00000-0  86751-3 0  9995
2 07081 102.2794  25.4008 0165601 307.8638  77.8243 12.69931732447016

AllMySatでDELTA 1 DEBをリアルタイム追跡

Download on the App Store